Погода в Элисте

Погода в Элисте : погода сейчас, прогноз погоды и архив. Всё, что Вы хотите узнать о погоде в Элисте!

Поиск расширенной информации на нашем сайте:

Другие новости

Новости СМИ2

Главная страница сайта

Новости сайта

03.07.2017

Напоминаем, что на нашем специализированном сайте Метеоцентр.Азия вы можете получить высокодетализированные автоматические прогнозы погоды по пунктам России, СНГ и мира в авиационном формате (включающие направление и скорость ветра, видимость, явления погоды, количество и форму облачности, нижнюю и верхнюю границу облачности).


Погода в Элисте - сегодня

Время (UTC), дата Ветер
(°,м/с) 
Видим.   Явления Облачность Т
(°С)
Тd
(°С)
f(%) Тe
(°С)
Pmin
(гПа)
dP
(гПа)
Po
(мм)
O2
(г/м3)
Тmin Tmax R s Состояние
почвы
21 17.04.18 210 (ЮЗ) 10 км    ясно 
+8.6 -0.7 52 +7  1023  0.4  749  293           
00 18.04.18 210 (ЮЗ) 10 км    ясно 
+8.2 -2.1 48 +7  1023.1  749  293           
03 18.04.18 230 (ЮЗ) 20000 м    8/0 средняя, верхняя 
[Ac trans|Ci fib]
+8.3 -2.3 47 +8  1023  749  293  +7.5        сухая 
06 18.04.18 220 (ЮЗ) 20000 м    9/0 средняя 
[Ac trans]
+12.8 -0.6 40 +12  1022.9  0.3  750  289           
09 18.04.18 200 (Ю) 20000 м    8/0 средняя 
[Ac trans]
+17.8 +0.6 31 +18  1021.5  -1  749  283           
12 18.04.18 190 (Ю) 5{11}  20000 м    8/0 средняя, верхняя 
[Ac trans|Ci fib]
+18.8 -0.7 27 +19  1019.7  -1.7  747  282           
15 18.04.18 200 (Ю) 4{10}  20000 м    10/0 средняя 
[Ac As]
+16 +1.6 38 +16  1018.4  -1.4  746  284    +19.7       
18 18.04.18 180 (Ю) 10 км    10/0 средняя 
[Ac As]
+13.3 +0.9 43 +12  1017.7  -0.9  746  286           
21 18.04.18 200 (Ю) 8{12}  10 км    10/0 средняя 
[Ac As]
+11.7 +0.3 45 +10  1016.2  -1.6  745  288           
00 19.04.18 200 (Ю) 4{10}  10 км    10/0 средняя 
[Ac trans]
+9.8 -0.1 50 +9  1014.1  -2.2  743  289           
03 19.04.18 220 (ЮЗ) 20000 м    8/0 средняя, верхняя 
[Ac As|Ci fib]
+8.3 +2.3 66 +8  1011.8  -2.4  741  289  +7.9        сухая 
06 19.04.18 240 (ЮЗ) 9-12{13}  20000 м    8/3 300 м средняя, верхняя 
[Sc diur, vesp|Ac As|Ci fib]
+12.9 +5.4 60 +11  1009.5  -1.9  740  284           
09 19.04.18 250 (З) 8-13{13}  20000 м  {ливн. осадки}  8/4 300 м средняя, верхняя 
[Sc diur, vesp|Ac trans|Ci fib]
+15.8 +7.4 57 +15  1008.3  -0.9  739  280           
12 19.04.18 260 (З) 9-13{16}  20000 м  {ливн. осадки}  8/6 300 м средняя, верхняя 
[Sc diur, vesp|Ac As|Ci fib]
+17 +1.2 34 +16  1006.4  -1.8  738  280           
15 19.04.18 280 (З) 20000 м  в посл. час ливневой дождь  9/6 300 м кучево-дожд., средняя, верхняя 
[Cb cap|Ac As|Ci fib]
+11.4 +6.4 71 +10  1005.8  -0.9  737  284    +17.8  0.3     
18 19.04.18 250 (З) 6{13}  10 км  в посл. час ливневой дождь  ясно 
+8.6 +5.5 81 +7  1005.7  -0.3  737  287           
21 19.04.18 240 (ЮЗ) 7{11}  10 км    ясно 
+8.1 +5.1 81 +6  1004.1  -1.7  735  287           
00 20.04.18 240 (ЮЗ) 8-11{13}  10 км  слаб. дождь  10/10 300 м кучево-дожд. 
[Cb cap]
+8 +6 87 +5  1002.1  -1.9  734  286           
03 20.04.18 240 (ЮЗ) 10 км  слаб. ливневой дождь  10/10 300 м кучево-дожд. 
[Cb cap]
+8.2 +6.2 87 +5  1001.3  -0.8  733  286  +7.8       
06 20.04.18 250 (З) 8-13{15}  10 км  в посл. час ливневой дождь  10/10 300 м кучево-дожд. 
[Cb cap]
+8.6 +6.4 86 +6  1001.3  0.1  734  285           
09 20.04.18 260 (З) 8-12{16}  4000 м  слаб. ливневой дождь  10/10 300 м кучево-дожд. 
[Cb cap]
+8.7 +6.2 84 +6  1002.1  0.8  734  286           
12 20.04.18 260 (З) 7-13{13}  20000 м  в посл. час ливневой дождь  8/8 600 м кучево-дожд. 
[Cb cap]
+9.6 +6.5 81 +8  1002.9  0.8  735  285           
15 20.04.18 260 (З) 6{14}  20000 м    8/5 600 м средняя 
[Sc|Ac trans]
+9.7 +5.7 76 +8  1003.6  0.7  735  285    +10.6     
18 20.04.18 270 (З) 6{13}  10 км    3/0 верхняя 
[Ci fib]
+7 +5.1 88 +5  1005.4  1.5  736  288           
21 20.04.18 280 (З) 10 км    10/0 средняя 
[Ac trans]
+7.7 +6 89 +6  1006.2  0.8  737  288           
Время (UTC), дата Ветер
(°,м/с) 
Видим.   Явления Облачность Т
(°С)
Тd
(°С)
f(%) Тe
(°С)
Pmin
(гПа)
dP
(гПа)
Po
(мм)
O2
(г/м3)
Тmin Tmax R s Состояние
почвы

Для получения пояснительной информации подведите курсор к названию столбца.

ПОГОДА в Элисте - архив

Всё, что Вы хотите узнать о погоде в Элисте - удобно и подробно!

Выберите нужную дату (начиная с 1 января 2015* года) и нажмите кнопку "Найти".
Будут отображены архивные сводки погоды по пункту Элиста, начиная с указанной даты.


Отображать данные в формате CSV (для использования в таблицах Excel)


Внимание! Наш архив погоды предназначен исключительно для личного некоммерческого использования в познавательных целях. Если Вам необходимы официальные справки о состоянии погоды (для производственных, юридических, коммерческих и т.п. целей), обращайтесь в органы Росгидромета.

*Примечание: данная дата относится к архиву по метеостанциям СССР (Россия, СНГ, Балтия).
Архив по метеостанциям Зарубежной Европы и Азии (кроме Китая) хранится 10 дней, по другим регионам земного шара (Китай, Африка, Америка, Австралия, Океания) - 1 день.

Элиста - район местоположения метеостанции


Название, широта, долгота, высота метеостанции:
Элиста 46.4°ш. 44.3°д. 155 м над ур. моря [Российская Федерация]

Дополнительная информация

В oтличие oт бoльшинства пoгoдных сайтoв мы публикуем пoдрoбную метеoинфoрмацию в детальнoм прoфессиoнальнoм фoрмате.

Характеристики температуры и влажнoсти вoздуха измеряются на высoте 2 м в тени вдали oт зданий и деревьев.
Скoрoсть ветра измеряется на высoте 10 м (на урoвне рoста челoвека скoрoсть ветра ниже в 1.5-2 раза). Если метеoстанция нахoдится в гoрoде или в лесу, тo скoрoсть ветра занижена на 2-4 м/с пo сравнению с oткрытым местoм. Скoрoсть ветра над акватoриями крупных рек и oзёр, а также на вершинах хoлмoв на 2-5 м/с выше, чем в oбычных услoвиях.
Атмoсфернoе давление в разных тoчках местнoсти мoжет значительнo oтличаться oт давления на метеoстанции, в зависимoсти oт услoвий рельефа (при пoдъёме на 10 м давление пoнижается примернo на 1 мм рт.ст.).